[[{"header":{"parameterUnit":"m.s-1","parameterCategory":1,"la1":30.2991,"la2":30.254,"lo1":-89.0895,"lo2":-89.0444,"dy":0.0017,"dx":0.0017,"nx":28,"ny":28,"refTime":"2024-07-02T09:00:00:Z","depth":0,"parameterNumber":2,"parameterNumberName":"U-component_of_WINDS"},"data":[0,0,0,0,0,0,0,0,0,0,0,0,0,0,0,0,0,0,0,0,0,0,0,0,0,0,0,0,0,0,0,0,0,0,0,0,0,0,0,0,0,0,0,0,0,0,0,0,0,0,0,0,0,0,0,0,0,0,0.7577,0.7576,0,0.7517,0.7516,0.7515,0.7423,0.7422,0.742,0.7418,0.7361,0.7361,0.7361,0,0,0,0,0,0,0,0,0,0,0,0,0,0.7616,0.7616,0.7577,0.7576,0.7575,0.7517,0.7516,0.7515,0.7424,0.7422,0.742,0.7418,0.7361,0.7361,0.7361,0,0,0,0,0,0,0,0,0,0,0,0,0,0.7582,0.7616,0.7577,0.7523,0.7517,0.7517,0.7516,0.7515,0.7424,0.7422,0.7419,0.7417,0.7361,0.7361,0.7361,0.741,0,0,0.7361,0.7361,0,0,0,0,0,0,0,0,0.7584,0.758,0.7531,0.7526,0.752,0.7475,0.7508,0.748,0.7425,0.746,0.7418,0.7416,0.7401,0.7398,0.7392,0.7408,0.7405,0.7361,0.7361,0.7361,0.7361,0,0,0,0,0,0,0,0.7586,0.7583,0.7553,0.7531,0.7524,0.7502,0.7495,0.7503,0.7445,0.7456,0.7449,0.7443,0.7398,0.7392,0.739,0.7404,0.7361,0.7361,0.7361,0.7361,0.7459,0.7461,0,0,0,0,0,0,0.7596,0.7585,0.7555,0.7551,0.7546,0.7503,0.7495,0.7492,0.7445,0.7435,0.7446,0.7439,0.7393,0.739,0.7387,0.7444,0.7361,0.7361,0.7361,0.7456,0.7459,0.7462,0,0,0,0,0,0,0.7597,0.7594,0.7557,0.7566,0.756,0.7505,0.7503,0.7492,0.7486,0.7436,0.7426,0.745,0.7391,0.7387,0.7405,0.744,0.7361,0.7361,0.7453,0.7457,0.7461,0.7556,0,0,0,0,0,0,0.7599,0.7595,0.7613,0.7567,0.756,0.7576,0.7505,0.7493,0.7486,0.7478,0.7438,0.7429,0.7389,0.7406,0.7405,0.7439,0.7361,0.745,0.7455,0.7459,0.7549,0.7562,0.7574,0,0,0,0,0,0.7601,0.7643,0.7614,0.7611,0.758,0.7578,0.7574,0.7525,0.7489,0.7507,0.7475,0.7431,0.7436,0.7408,0.7407,0.7441,0.7447,0.7453,0.7459,0.7544,0.756,0.7573,0,0,0,0,0,0,0.7696,0.7636,0.7604,0.7632,0.7611,0.7562,0.7583,0.7543,0.7533,0.7525,0.7466,0.7458,0.7484,0.7464,0.7434,0.7487,0.7435,0.7441,0.75,0.7515,0.7526,0.7532,0.7361,0,0,0,0,0,0.7719,0.7721,0.7669,0.7699,0.769,0.7639,0.7636,0.76,0.7576,0.7567,0.7536,0.7515,0.7512,0.7512,0.7506,0.7545,0.7536,0.7568,0.758,0.759,0.7597,0.7617,0.7631,0.7481,0.7481,0.7481,0,0,0.777,0.7737,0.7742,0.7718,0.7697,0.7701,0.7632,0.7639,0.7643,0.7568,0.7584,0.756,0.7533,0.7562,0.7573,0.7546,0.7636,0.7597,0.7606,0.7607,0.7625,0.7639,0.7652,0.7485,0.7484,0.7484,0,0,0.7864,0.7838,0.7861,0.7842,0.781,0.7776,0.7781,0.7739,0.772,0.7734,0.7678,0.7682,0.7677,0.7661,0.7652,0.7739,0.7699,0.7739,0.7803,0.7824,0.7836,0.7846,0.788,0.7892,0.7745,0.7745,0.7745,0,0.7931,0.7934,0.7879,0.789,0.7881,0.7812,0.7836,0.782,0.7789,0.7785,0.7754,0.7748,0.7725,0.775,0.7771,0.7765,0.7771,0.7744,0.7838,0.7848,0.7857,0.7888,0.7901,0.775,0.775,0.7749,0.7749,0,0.8019,0.8022,0.8045,0.8016,0.8009,0.8027,0.7975,0.7975,0.794,0.7909,0.7924,0.7894,0.7881,0.7884,0.785,0.7904,0.7889,0.7849,0.7796,0.7878,0.7906,0.7917,0.7758,0.7756,0.7754,0.7753,0,0,0.8174,0.8113,0.8122,0.8109,0.8068,0.8071,0.8085,0.8071,0.8074,0.8054,0.8066,0.8064,0.8027,0.8017,0.7979,0.7997,0.8071,0.7955,0.7954,0.798,0.8132,0.8164,0.8179,0.8042,0.8044,0.8046,0.8135,0,0.8262,0.8283,0.8233,0.8267,0.827,0.8204,0.8216,0.8194,0.8165,0.8165,0.8133,0.8133,0.8082,0.8076,0.8091,0.8059,0.8101,0.8051,0.8056,0.8056,0.8067,0.8193,0.8227,0.8313,0.8145,0.8147,0.8148,0,0.8369,0.8354,0.8388,0.8346,0.8345,0.8358,0.8342,0.8341,0.8314,0.8292,0.8281,0.8237,0.8249,0.8196,0.8214,0.8181,0.8179,0.8164,0.8166,0.8167,0.811,0.82,0.8338,0.8353,0.8165,0.8163,0.8162,0,0.8482,0.847,0.8489,0.8479,0.843,0.844,0.8421,0.8391,0.8386,0.8372,0.8369,0.8357,0.8351,0.8343,0.8298,0.8263,0.8322,0.8264,0.8306,0.8307,0.8324,0.8324,0.8467,0.8318,0.8318,0.8318,0.8317,0,0.8588,0.8612,0.8539,0.8551,0.8576,0.8518,0.8545,0.8519,0.8493,0.85,0.8441,0.8449,0.8387,0.8389,0.8353,0.8374,0.8371,0.8355,0.8346,0.8362,0.8365,0.8363,0.8357,0.8321,0.832,0.832,0.8319,0,0.872,0.8672,0.8688,0.864,0.8628,0.8649,0.8608,0.8618,0.8584,0.8594,0.8593,0.8541,0.854,0.8492,0.8481,0.8457,0.8495,0.8473,0.8504,0.8498,0.8543,0.8541,0.8692,0.871,0.8548,0.8549,0.8551,0,0.8792,0.8809,0.8762,0.8761,0.8744,0.8744,0.8739,0.8682,0.8679,0.8649,0.8663,0.8657,0.8649,0.865,0.8612,0.8604,0.8583,0.8637,0.8582,0.8598,0.8588,0.8589,0.8591,0.865,0.8652,0.8654,0.8655,0,0.8926,0.8901,0.8895,0.8881,0.8875,0.8861,0.8844,0.8847,0.8785,0.8784,0.8782,0.8775,0.8763,0.8759,0.8743,0.8724,0.8681,0.8672,0.8681,0.87,0.8718,0.8712,0.8539,0.867,0.8668,0.8667,0.8666,0.8666,0.9033,0.9045,0.9014,0.9009,0.8989,0.8974,0.8981,0.8948,0.8944,0.8929,0.8895,0.8899,0.8872,0.8846,0.883,0.8833,0.8806,0.8819,0.8823,0.8829,0.8839,0.8715,0.8829,0.8829,0.8828,0.8828,0.8828,0,0.9166,0.9142,0.9138,0.9115,0.9112,0.9067,0.9046,0.9046,0.9049,0.9027,0.902,0.9017,0.9012,0.8973,0.8963,0.8973,0.8953,0.8973,0.8973,0.897,0.8862,0.8855,0.8989,0.8989,0.8989,0.8989,0.8989,0.8989,0.9236,0.9255,0.9226,0.9235,0.9211,0.9213,0.9204,0.9191,0.9172,0.9172,0.9167,0.914,0.9112,0.91,0.9093,0.9082,0.9083,0.911,0.9093,0.8993,0.8978,0.8963,0.8957,0.911,0.911,0.9201,0.9202,0.9203]},{"header":{"parameterUnit":"m.s-1","parameterCategory":1,"la1":30.2991,"la2":30.254,"lo1":-89.0895,"lo2":-89.0444,"dy":0.0017,"dx":0.0017,"nx":28,"ny":28,"refTime":"2024-07-02T09:00:00:Z","depth":0,"parameterNumber":3,"parameterNumberName":"V-component_of_WINDS"},"data":[0,0,0,0,0,0,0,0,0,0,0,0,0,0,0,0,0,0,0,0,0,0,0,0,0,0,0,0,0,0,0,0,0,0,0,0,0,0,0,0,0,0,0,0,0,0,0,0,0,0,0,0,0,0,0,0,0,0,-1.3164,-1.3165,0,-1.3287,-1.3289,-1.329,-1.3356,-1.3356,-1.3356,-1.3356,-1.3484,-1.3488,-1.3491,0,0,0,0,0,0,0,0,0,0,0,0,0,-1.2986,-1.2989,-1.3164,-1.3165,-1.3167,-1.3287,-1.3289,-1.3291,-1.3356,-1.3356,-1.3356,-1.3356,-1.3483,-1.3487,-1.3491,0,0,0,0,0,0,0,0,0,0,0,0,0,-1.3082,-1.299,-1.3163,-1.3214,-1.3219,-1.3287,-1.3289,-1.3291,-1.3356,-1.3356,-1.3356,-1.3356,-1.3482,-1.3487,-1.3492,-1.3519,0,0,-1.3507,-1.3509,0,0,0,0,0,0,0,0,-1.3076,-1.3088,-1.3205,-1.321,-1.3217,-1.3306,-1.3274,-1.3368,-1.3355,-1.3304,-1.3356,-1.3356,-1.3425,-1.3435,-1.3458,-1.3525,-1.3531,-1.3507,-1.351,-1.3513,-1.3514,0,0,0,0,0,0,0,-1.307,-1.3083,-1.3213,-1.3206,-1.3214,-1.3231,-1.3245,-1.3292,-1.3362,-1.3308,-1.3313,-1.3327,-1.3429,-1.3453,-1.3461,-1.3533,-1.3507,-1.3512,-1.3515,-1.3517,-1.363,-1.363,0,0,0,0,0,0,-1.3055,-1.3077,-1.3209,-1.3216,-1.3146,-1.3234,-1.3249,-1.3277,-1.3362,-1.3375,-1.3327,-1.333,-1.3444,-1.3455,-1.3466,-1.3504,-1.3513,-1.3517,-1.352,-1.363,-1.363,-1.363,0,0,0,0,0,0,-1.3051,-1.3066,-1.3204,-1.3148,-1.3167,-1.3237,-1.3268,-1.328,-1.3304,-1.3376,-1.3389,-1.3338,-1.3445,-1.3459,-1.3506,-1.351,-1.352,-1.3524,-1.363,-1.363,-1.363,-1.358,0,0,0,0,0,0,-1.3045,-1.3064,-1.3074,-1.3148,-1.317,-1.324,-1.3268,-1.3282,-1.3312,-1.3317,-1.339,-1.3402,-1.3446,-1.3498,-1.3511,-1.3517,-1.3528,-1.363,-1.363,-1.363,-1.3582,-1.3579,-1.3576,0,0,0,0,0,-1.3039,-1.3056,-1.3075,-1.309,-1.3184,-1.3241,-1.3253,-1.3302,-1.3312,-1.3324,-1.337,-1.34,-1.3507,-1.3502,-1.3517,-1.3524,-1.363,-1.363,-1.363,-1.3583,-1.3579,-1.3576,0,0,0,0,0,0,-1.2981,-1.3066,-1.3088,-1.313,-1.3177,-1.3251,-1.3268,-1.3296,-1.3343,-1.3346,-1.3405,-1.3421,-1.3462,-1.3498,-1.3491,-1.3556,-1.3572,-1.3575,-1.3531,-1.3528,-1.3525,-1.3515,-1.3532,0,0,0,0,0,-1.2973,-1.3011,-1.3084,-1.3113,-1.3136,-1.3197,-1.3224,-1.3257,-1.331,-1.333,-1.338,-1.343,-1.3475,-1.3503,-1.3549,-1.3587,-1.3605,-1.36,-1.3597,-1.3594,-1.3596,-1.362,-1.3619,-1.363,-1.363,-1.363,0,0,-1.2958,-1.3009,-1.3029,-1.3103,-1.3144,-1.3182,-1.3214,-1.3253,-1.3283,-1.3337,-1.3384,-1.3422,-1.3482,-1.3524,-1.3546,-1.3556,-1.3597,-1.3594,-1.3591,-1.3595,-1.362,-1.3619,-1.3618,-1.363,-1.363,-1.363,0,0,-1.2949,-1.2991,-1.302,-1.306,-1.3122,-1.3163,-1.317,-1.324,-1.3267,-1.3315,-1.3356,-1.3393,-1.3469,-1.351,-1.3541,-1.3547,-1.3577,-1.3561,-1.3545,-1.3567,-1.3566,-1.3566,-1.3569,-1.3569,-1.3562,-1.3562,-1.3562,0,-1.2922,-1.298,-1.3032,-1.3069,-1.31,-1.315,-1.3181,-1.3218,-1.3291,-1.3312,-1.3322,-1.3419,-1.3463,-1.3516,-1.3518,-1.3541,-1.3551,-1.3552,-1.3562,-1.3562,-1.3562,-1.3566,-1.3567,-1.356,-1.356,-1.356,-1.356,0,-1.2944,-1.2984,-1.3001,-1.307,-1.3103,-1.3137,-1.3194,-1.3222,-1.3253,-1.3293,-1.3341,-1.3396,-1.3453,-1.3469,-1.3499,-1.3527,-1.3531,-1.355,-1.3567,-1.3558,-1.3562,-1.3564,-1.3556,-1.3557,-1.3558,-1.3558,0,0,-1.2902,-1.2999,-1.3004,-1.3036,-1.3108,-1.314,-1.3177,-1.3232,-1.3255,-1.3304,-1.3337,-1.34,-1.3419,-1.3454,-1.349,-1.3509,-1.3512,-1.3527,-1.3529,-1.3523,-1.3546,-1.3531,-1.3531,-1.3532,-1.3532,-1.3533,-1.3541,0,-1.2904,-1.297,-1.3017,-1.3066,-1.3104,-1.3152,-1.3184,-1.3232,-1.327,-1.3309,-1.3352,-1.3396,-1.3417,-1.3439,-1.346,-1.3507,-1.3517,-1.3507,-1.3563,-1.3565,-1.3547,-1.3533,-1.3517,-1.3522,-1.3543,-1.3543,-1.3543,0,-1.2914,-1.296,-1.3012,-1.308,-1.3098,-1.3125,-1.318,-1.3217,-1.3272,-1.3299,-1.3338,-1.3375,-1.3416,-1.3429,-1.3487,-1.3479,-1.3505,-1.3532,-1.3533,-1.354,-1.3553,-1.354,-1.3525,-1.3526,-1.3546,-1.3546,-1.3546,0,-1.2878,-1.2954,-1.2995,-1.3021,-1.3101,-1.3119,-1.3154,-1.3209,-1.324,-1.3288,-1.3309,-1.3362,-1.3391,-1.3431,-1.3482,-1.3486,-1.3535,-1.3552,-1.3559,-1.3557,-1.3567,-1.3566,-1.3556,-1.3583,-1.3583,-1.3583,-1.3583,0,-1.2875,-1.2904,-1.298,-1.3005,-1.3041,-1.3096,-1.3129,-1.3168,-1.3217,-1.3251,-1.3297,-1.3328,-1.3393,-1.3432,-1.3472,-1.3515,-1.3527,-1.3551,-1.3561,-1.3547,-1.3544,-1.3565,-1.3566,-1.3583,-1.3583,-1.3583,-1.3583,0,-1.2841,-1.2893,-1.2941,-1.3012,-1.3031,-1.3054,-1.3116,-1.3143,-1.3184,-1.3227,-1.324,-1.3304,-1.3353,-1.3408,-1.3475,-1.3502,-1.3542,-1.3557,-1.3523,-1.3529,-1.3532,-1.3531,-1.3536,-1.3539,-1.3564,-1.3563,-1.3563,0,-1.2835,-1.2859,-1.2933,-1.2959,-1.2992,-1.3033,-1.3064,-1.312,-1.315,-1.3216,-1.3235,-1.3287,-1.3332,-1.3408,-1.3461,-1.3513,-1.353,-1.3528,-1.3538,-1.3523,-1.353,-1.3528,-1.3531,-1.3525,-1.3524,-1.3524,-1.3523,0,-1.2819,-1.2844,-1.2887,-1.2939,-1.2974,-1.3018,-1.3064,-1.3083,-1.3147,-1.318,-1.323,-1.3265,-1.3333,-1.3385,-1.3443,-1.348,-1.3512,-1.352,-1.3524,-1.351,-1.3489,-1.3501,-1.3515,-1.3519,-1.352,-1.352,-1.352,-1.352,-1.28,-1.2824,-1.288,-1.2926,-1.2966,-1.3008,-1.3036,-1.3081,-1.3123,-1.3183,-1.3213,-1.3263,-1.3319,-1.3401,-1.3437,-1.3477,-1.3488,-1.3494,-1.3496,-1.3496,-1.3492,-1.3482,-1.3488,-1.3488,-1.3488,-1.3489,-1.3489,0,-1.2787,-1.2825,-1.2867,-1.2929,-1.2966,-1.2993,-1.3045,-1.3074,-1.3117,-1.3166,-1.3209,-1.3267,-1.3317,-1.3375,-1.3429,-1.3451,-1.3467,-1.3463,-1.3462,-1.347,-1.348,-1.3471,-1.3449,-1.3449,-1.3449,-1.3449,-1.3449,-1.3449,-1.2784,-1.2826,-1.2857,-1.292,-1.2958,-1.3007,-1.3034,-1.3073,-1.3113,-1.3175,-1.3217,-1.3254,-1.3307,-1.3365,-1.3413,-1.3429,-1.3446,-1.3438,-1.3458,-1.3466,-1.3469,-1.3472,-1.3464,-1.3441,-1.3441,-1.3445,-1.3445,-1.3445]}]]